Time,TemperatureF,DewpointF,PressureIn,WindDirection,WindDirectionDegrees,WindSpeedMPH,WindSpeedGustMPH,Humidity,HourlyPrecipIn,Conditions,Clouds,dailyrainin,SoftwareType,DateUTC
2013-02-26 00:05:00,29.1,24.9,29.98,NE,42,0.0,5.0,84,0.00,,,0.00,Wunderground v.1.13,2013-02-26 06:05:00,
2013-02-26 00:15:00,28.8,24.6,29.98,NE,42,0.0,5.0,84,0.00,,,0.00,Wunderground v.1.13,2013-02-26 06:15:00,
2013-02-26 00:25:00,29.0,24.5,29.97,NNE,13,0.0,5.0,83,0.00,,,0.00,Wunderground v.1.13,2013-02-26 06:25:00,
2013-02-26 00:30:00,29.1,24.6,29.97,NNE,22,1.0,1.0,83,0.00,,,0.00,Wunderground v.1.13,2013-02-26 06:30:00,
2013-02-26 00:35:00,29.3,24.5,29.96,NNE,13,1.0,1.0,82,0.00,,,0.00,Wunderground v.1.13,2013-02-26 06:35:00,
2013-02-26 00:45:00,29.4,24.3,29.96,NNE,13,1.0,1.0,81,0.00,,,0.00,Wunderground v.1.13,2013-02-26 06:45:00,
2013-02-26 00:55:00,29.3,23.9,29.95,NNE,18,1.0,5.0,80,0.00,,,0.00,Wunderground v.1.13,2013-02-26 06:55:00,
2013-02-26 01:05:00,29.0,23.6,29.95,NNE,19,1.0,7.0,80,0.00,,,0.00,Wunderground v.1.13,2013-02-26 07:05:00,
2013-02-26 01:15:00,28.8,23.7,29.95,NNE,19,1.0,7.0,81,0.00,,,0.00,Wunderground v.1.13,2013-02-26 07:15:00,
2013-02-26 01:25:00,28.8,23.7,29.94,NNE,19,1.0,1.0,81,0.00,,,0.00,Wunderground v.1.13,2013-02-26 07:25:00,
2013-02-26 01:35:00,29.0,23.9,29.93,NNE,19,0.0,7.0,81,0.00,,,0.00,Wunderground v.1.13,2013-02-26 07:35:00,
2013-02-26 01:45:00,29.3,24.5,29.93,NNE,19,0.0,7.0,82,0.00,,,0.00,Wunderground v.1.13,2013-02-26 07:45:00,
2013-02-26 01:50:00,29.4,24.6,29.94,NNE,19,1.0,1.0,82,0.00,,,0.00,Wunderground v.1.13,2013-02-26 07:50:00,
2013-02-26 02:00:00,29.8,24.7,29.94,NNE,19,1.0,7.0,81,0.00,,,0.00,Wunderground v.1.13,2013-02-26 08:00:00,
2013-02-26 02:05:00,29.8,24.4,29.93,NNE,19,1.0,1.0,80,0.00,,,0.00,Wunderground v.1.13,2013-02-26 08:05:00,
2013-02-26 02:15:00,30.0,24.9,29.93,NNE,19,1.0,1.0,81,0.00,,,0.00,Wunderground v.1.13,2013-02-26 08:15:00,
2013-02-26 02:25:00,30.0,24.9,29.93,NNE,21,0.0,5.0,81,0.00,,,0.00,Wunderground v.1.13,2013-02-26 08:25:00,
2013-02-26 02:30:00,30.0,24.6,29.93,NNE,21,0.0,5.0,80,0.00,,,0.00,Wunderground v.1.13,2013-02-26 08:30:00,
2013-02-26 02:35:00,30.0,24.6,29.91,NNE,22,0.0,5.0,80,0.00,,,0.00,Wunderground v.1.13,2013-02-26 08:35:00,
2013-02-26 02:45:00,30.1,24.7,29.91,NNE,28,1.0,5.0,80,0.00,,,0.00,Wunderground v.1.13,2013-02-26 08:45:00,
2013-02-26 02:50:00,30.3,24.9,29.90,NNE,29,2.0,2.0,80,0.00,,,0.00,Wunderground v.1.13,2013-02-26 08:50:00,
2013-02-26 03:00:00,30.4,25.0,29.90,NNE,29,1.0,1.0,80,0.00,,,0.00,Wunderground v.1.13,2013-02-26 09:00:00,
2013-02-26 03:05:00,30.6,25.2,29.89,NE,54,1.0,8.0,80,0.00,,,0.00,Wunderground v.1.13,2013-02-26 09:05:00,
2013-02-26 03:15:00,30.6,25.2,29.89,NE,54,1.0,1.0,80,0.00,,,0.00,Wunderground v.1.13,2013-02-26 09:15:00,
2013-02-26 03:20:00,30.6,25.2,29.88,NE,35,1.0,8.0,80,0.00,,,0.00,Wunderground v.1.13,2013-02-26 09:20:00,
2013-02-26 03:30:00,30.7,25.6,29.88,ENE,63,2.0,8.0,81,0.00,,,0.00,Wunderground v.1.13,2013-02-26 09:30:00,
2013-02-26 03:35:00,30.6,25.5,29.87,NE,37,2.0,8.0,81,0.00,,,0.00,Wunderground v.1.13,2013-02-26 09:35:00,
2013-02-26 03:45:00,30.6,25.8,29.87,NE,40,2.0,2.0,82,0.00,,,0.00,Wunderground v.1.13,2013-02-26 09:45:00,
2013-02-26 03:50:00,30.6,25.8,29.86,NNE,30,2.0,8.0,82,0.00,,,0.00,Wunderground v.1.13,2013-02-26 09:50:00,
2013-02-26 03:55:00,30.6,25.8,29.86,NNE,31,3.0,8.0,82,0.00,,,0.00,Wunderground v.1.13,2013-02-26 09:55:00,
2013-02-26 04:05:00,30.6,25.8,29.85,NNE,27,2.0,9.0,82,0.00,,,0.00,Wunderground v.1.13,2013-02-26 10:05:00,
2013-02-26 04:15:00,30.7,25.9,29.85,ENE,62,4.0,4.0,82,0.00,,,0.00,Wunderground v.1.13,2013-02-26 10:15:00,
2013-02-26 04:25:00,30.9,26.1,29.86,NE,55,4.0,9.0,82,0.00,,,0.00,Wunderground v.1.13,2013-02-26 10:25:00,
2013-02-26 04:30:00,31.0,25.9,29.86,NE,46,4.0,4.0,81,0.00,,,0.00,Wunderground v.1.13,2013-02-26 10:30:00,
2013-02-26 04:35:00,31.0,25.9,29.85,ENE,60,4.0,9.0,81,0.00,,,0.00,Wunderground v.1.13,2013-02-26 10:35:00,
2013-02-26 04:40:00,31.2,25.7,29.85,ENE,60,4.0,9.0,80,0.00,,,0.00,Wunderground v.1.13,2013-02-26 10:40:00,
2013-02-26 04:50:00,31.3,25.5,29.85,ENE,66,4.0,9.0,79,0.00,,,0.00,Wunderground v.1.13,2013-02-26 10:50:00,
2013-02-26 05:00:00,31.3,25.2,29.85,NNE,33,4.0,9.0,78,0.00,,,0.00,Wunderground v.1.13,2013-02-26 11:00:00,
2013-02-26 05:05:00,31.3,25.2,29.84,NE,35,4.0,10.0,78,0.00,,,0.00,Wunderground v.1.13,2013-02-26 11:05:00,
2013-02-26 05:15:00,31.5,25.4,29.84,NE,49,5.0,5.0,78,0.00,,,0.00,Wunderground v.1.13,2013-02-26 11:15:00,
2013-02-26 05:25:00,31.5,25.4,29.84,ENE,61,4.0,10.0,78,0.00,,,0.00,Wunderground v.1.13,2013-02-26 11:25:00,
2013-02-26 05:30:00,31.6,25.2,29.84,NE,53,4.0,4.0,77,0.00,,,0.00,Wunderground v.1.13,2013-02-26 11:30:00,
2013-02-26 05:35:00,31.6,25.2,29.84,NE,46,3.0,10.0,77,0.00,,,0.00,Wunderground v.1.13,2013-02-26 11:35:00,
2013-02-26 05:45:00,31.6,25.2,29.84,NE,44,3.0,3.0,77,0.00,,,0.00,Wunderground v.1.13,2013-02-26 11:45:00,
2013-02-26 05:50:00,31.8,25.4,29.84,NNE,17,3.0,10.0,77,0.00,,,0.00,Wunderground v.1.13,2013-02-26 11:50:00,
2013-02-26 06:00:00,31.6,25.2,29.84,ENE,65,4.0,10.0,77,0.00,,,0.00,Wunderground v.1.13,2013-02-26 12:00:00,
2013-02-26 06:05:00,31.6,25.2,29.83,ENE,75,5.0,13.0,77,0.00,,,0.00,Wunderground v.1.13,2013-02-26 12:05:00,
2013-02-26 06:15:00,31.8,25.7,29.83,NE,50,5.0,5.0,78,0.00,,,0.00,Wunderground v.1.13,2013-02-26 12:15:00,
2013-02-26 06:25:00,31.8,25.7,29.83,ENE,71,5.0,5.0,78,0.00,,,0.00,Wunderground v.1.13,2013-02-26 12:25:00,
2013-02-26 06:35:00,31.6,25.8,29.82,NE,53,4.0,13.0,79,0.00,,,0.00,Wunderground v.1.13,2013-02-26 12:35:00,
2013-02-26 06:45:00,31.6,25.8,29.82,ENE,65,6.0,13.0,79,0.00,,,0.00,Wunderground v.1.13,2013-02-26 12:45:00,
2013-02-26 06:50:00,31.6,25.8,29.82,ENE,76,6.0,6.0,79,0.00,,,0.00,Wunderground v.1.13,2013-02-26 12:50:00,
2013-02-26 07:00:00,31.5,25.7,29.82,ENE,67,6.0,6.0,79,0.00,,,0.00,Wunderground v.1.13,2013-02-26 13:00:00,
2013-02-26 07:10:00,31.6,25.5,29.81,East,91,6.0,6.0,78,0.00,,,0.00,Wunderground v.1.13,2013-02-26 13:10:00,
2013-02-26 07:15:00,31.8,25.4,29.81,East,86,6.0,6.0,77,0.00,,,0.00,Wunderground v.1.13,2013-02-26 13:15:00,
2013-02-26 07:25:00,31.8,25.1,29.82,ENE,69,6.0,12.0,76,0.00,,,0.00,Wunderground v.1.13,2013-02-26 13:25:00,
2013-02-26 07:30:00,31.9,24.9,29.82,ENE,59,7.0,7.0,75,0.00,,,0.00,Wunderground v.1.13,2013-02-26 13:30:00,
2013-02-26 07:40:00,31.9,24.6,29.81,ENE,74,6.0,13.0,74,0.00,,,0.00,Wunderground v.1.13,2013-02-26 13:40:00,
2013-02-26 07:45:00,31.9,24.6,29.81,ENE,71,7.0,7.0,74,0.00,,,0.00,Wunderground v.1.13,2013-02-26 13:45:00,
2013-02-26 07:50:00,32.1,24.1,29.81,ENE,78,7.0,7.0,72,0.00,,,0.00,Wunderground v.1.13,2013-02-26 13:50:00,
2013-02-26 07:55:00,32.1,24.1,29.81,East,79,8.0,8.0,72,0.00,,,0.00,Wunderground v.1.13,2013-02-26 13:55:00,
2013-02-26 08:05:00,32.2,24.5,29.81,ENE,69,8.0,16.0,73,0.00,,,0.00,Wunderground v.1.13,2013-02-26 14:05:00,
2013-02-26 08:15:00,32.2,24.5,29.81,ENE,71,7.0,16.0,73,0.00,,,0.00,Wunderground v.1.13,2013-02-26 14:15:00,
2013-02-26 08:25:00,32.2,24.2,29.82,ENE,74,7.0,16.0,72,0.00,,,0.00,Wunderground v.1.13,2013-02-26 14:25:00,
2013-02-26 08:30:00,32.2,24.2,29.82,ENE,68,7.0,7.0,72,0.00,,,0.00,Wunderground v.1.13,2013-02-26 14:30:00,
2013-02-26 08:35:00,32.2,24.2,29.81,ENE,76,6.0,16.0,72,0.00,,,0.00,Wunderground v.1.13,2013-02-26 14:35:00,
2013-02-26 08:45:00,32.2,23.8,29.81,NE,54,8.0,8.0,71,0.00,,,0.00,Wunderground v.1.13,2013-02-26 14:45:00,
2013-02-26 08:55:00,32.2,24.2,29.80,ENE,71,7.0,7.0,72,0.00,,,0.00,Wunderground v.1.13,2013-02-26 14:55:00,
2013-02-26 09:05:00,32.2,24.2,29.79,NE,35,6.0,6.0,72,0.00,,,0.00,Wunderground v.1.13,2013-02-26 15:05:00,
2013-02-26 09:15:00,32.2,24.2,29.79,East,79,7.0,7.0,72,0.00,,,0.00,Wunderground v.1.13,2013-02-26 15:15:00,
2013-02-26 09:25:00,32.2,24.2,29.78,NE,56,6.0,6.0,72,0.00,,,0.00,Wunderground v.1.13,2013-02-26 15:25:00,
2013-02-26 09:30:00,32.4,24.0,29.78,ENE,59,5.0,19.0,71,0.00,,,0.00,Wunderground v.1.13,2013-02-26 15:30:00,
2013-02-26 09:35:00,32.4,23.7,29.77,NE,50,6.0,6.0,70,0.00,,,0.00,Wunderground v.1.13,2013-02-26 15:35:00,
2013-02-26 09:45:00,32.5,23.8,29.77,NE,47,8.0,8.0,70,0.00,,,0.00,Wunderground v.1.13,2013-02-26 15:45:00,
2013-02-26 09:55:00,32.5,23.5,29.76,NE,56,6.0,6.0,69,0.00,,,0.00,Wunderground v.1.13,2013-02-26 15:55:00,
2013-02-26 10:00:00,32.7,23.6,29.76,East,82,7.0,19.0,69,0.00,,,0.00,Wunderground v.1.13,2013-02-26 16:00:00,
2013-02-26 10:05:00,32.7,23.3,29.75,NNE,22,8.0,8.0,68,0.00,,,0.00,Wunderground v.1.13,2013-02-26 16:05:00,
2013-02-26 10:15:00,32.8,23.7,29.75,NE,49,7.0,18.0,69,0.00,,,0.00,Wunderground v.1.13,2013-02-26 16:15:00,
2013-02-26 10:25:00,32.7,24.0,29.73,NE,48,8.0,18.0,70,0.00,,,0.00,Wunderground v.1.13,2013-02-26 16:25:00,
2013-02-26 10:35:00,32.7,23.6,29.73,NE,47,8.0,8.0,69,0.00,,,0.00,Wunderground v.1.13,2013-02-26 16:35:00,
2013-02-26 10:40:00,32.5,23.5,29.73,NE,48,8.0,18.0,69,0.00,,,0.00,Wunderground v.1.13,2013-02-26 16:40:00,
2013-02-26 10:50:00,32.5,23.5,29.72,ENE,60,9.0,16.0,69,0.00,,,0.00,Wunderground v.1.13,2013-02-26 16:50:00,
2013-02-26 10:55:00,32.5,23.5,29.72,NE,42,9.0,16.0,69,0.00,,,0.00,Wunderground v.1.13,2013-02-26 16:55:00,
2013-02-26 11:00:00,32.5,23.1,29.72,East,98,9.0,9.0,68,0.00,,,0.00,Wunderground v.1.13,2013-02-26 17:00:00,
2013-02-26 11:05:00,32.7,23.6,29.72,ENE,69,7.0,20.0,69,0.00,,,0.00,Wunderground v.1.13,2013-02-26 17:05:00,
2013-02-26 11:15:00,32.7,23.6,29.72,NNE,24,9.0,9.0,69,0.00,,,0.00,Wunderground v.1.13,2013-02-26 17:15:00,
2013-02-26 11:25:00,32.7,23.3,29.72,NE,54,7.0,7.0,68,0.00,,,0.00,Wunderground v.1.13,2013-02-26 17:25:00,
2013-02-26 11:30:00,32.8,23.0,29.72,ENE,76,7.0,16.0,67,0.00,,,0.00,Wunderground v.1.13,2013-02-26 17:30:00,
2013-02-26 11:40:00,32.8,23.4,29.72,NE,55,9.0,20.0,68,0.00,,,0.00,Wunderground v.1.13,2013-02-26 17:40:00,
2013-02-26 11:45:00,32.7,23.3,29.72,East,87,9.0,20.0,68,0.00,,,0.00,Wunderground v.1.13,2013-02-26 17:45:00,
2013-02-26 11:50:00,32.8,23.4,29.70,ENE,65,9.0,9.0,68,0.00,,,0.00,Wunderground v.1.13,2013-02-26 17:50:00,
2013-02-26 11:55:00,32.7,23.3,29.70,NE,55,10.0,10.0,68,0.00,,,0.00,Wunderground v.1.13,2013-02-26 17:55:00,
2013-02-26 12:05:00,32.5,23.1,29.70,ENE,69,8.0,8.0,68,0.00,,,0.00,Wunderground v.1.13,2013-02-26 18:05:00,
2013-02-26 12:15:00,32.4,23.0,29.70,ENE,68,7.0,23.0,68,0.00,,,0.00,Wunderground v.1.13,2013-02-26 18:15:00,
2013-02-26 12:20:00,32.4,23.0,29.69,NE,38,8.0,23.0,68,0.00,,,0.00,Wunderground v.1.13,2013-02-26 18:20:00,
2013-02-26 12:30:00,32.4,23.0,29.69,NE,54,8.0,20.0,68,0.00,,,0.00,Wunderground v.1.13,2013-02-26 18:30:00,
2013-02-26 12:40:00,32.2,22.8,29.68,NNE,17,9.0,9.0,68,0.00,,,0.00,Wunderground v.1.13,2013-02-26 18:40:00,
2013-02-26 12:45:00,32.1,22.7,29.68,NNE,28,9.0,23.0,68,0.00,,,0.00,Wunderground v.1.13,2013-02-26 18:45:00,
2013-02-26 12:50:00,32.1,22.7,29.67,NE,51,9.0,9.0,68,0.00,,,0.00,Wunderground v.1.13,2013-02-26 18:50:00,
2013-02-26 12:55:00,32.1,22.7,29.67,East,85,9.0,23.0,68,0.00,,,0.00,Wunderground v.1.13,2013-02-26 18:55:00,
2013-02-26 13:00:00,32.1,22.7,29.67,NE,40,9.0,23.0,68,0.00,,,0.00,Wunderground v.1.13,2013-02-26 19:00:00,
2013-02-26 13:05:00,32.2,22.8,29.67,NNE,28,9.0,24.0,68,0.00,,,0.00,Wunderground v.1.13,2013-02-26 19:05:00,
2013-02-26 13:15:00,32.4,23.0,29.67,NE,55,7.0,7.0,68,0.00,,,0.00,Wunderground v.1.13,2013-02-26 19:15:00,
2013-02-26 13:20:00,32.4,23.0,29.67,NNE,31,7.0,7.0,68,0.00,,,0.00,Wunderground v.1.13,2013-02-26 19:20:00,
2013-02-26 13:25:00,32.4,23.0,29.67,NE,44,8.0,24.0,68,0.00,,,0.00,Wunderground v.1.13,2013-02-26 19:25:00,
2013-02-26 13:35:00,32.4,23.0,29.66,NE,48,9.0,9.0,68,0.00,,,0.00,Wunderground v.1.13,2013-02-26 19:35:00,
2013-02-26 13:40:00,32.5,23.5,29.66,ENE,65,7.0,24.0,69,0.00,,,0.00,Wunderground v.1.13,2013-02-26 19:40:00,
2013-02-26 13:45:00,32.5,23.5,29.66,NE,39,7.0,7.0,69,0.00,,,0.00,Wunderground v.1.13,2013-02-26 19:45:00,
2013-02-26 13:55:00,32.5,23.5,29.66,NE,44,8.0,23.0,69,0.00,,,0.00,Wunderground v.1.13,2013-02-26 19:55:00,
2013-02-26 14:00:00,32.4,23.7,29.66,NE,50,9.0,23.0,70,0.00,,,0.00,Wunderground v.1.13,2013-02-26 20:00:00,
2013-02-26 14:05:00,32.4,23.7,29.65,NNE,22,9.0,21.0,70,0.00,,,0.00,Wunderground v.1.13,2013-02-26 20:05:00,
2013-02-26 14:15:00,32.4,23.7,29.65,NNE,29,9.0,21.0,70,0.00,,,0.00,Wunderground v.1.13,2013-02-26 20:15:00,
2013-02-26 14:20:00,32.4,23.7,29.65,NE,36,9.0,21.0,70,0.00,,,0.00,Wunderground v.1.13,2013-02-26 20:20:00,
2013-02-26 14:25:00,32.4,23.7,29.65,North,5,11.0,21.0,70,0.00,,,0.00,Wunderground v.1.13,2013-02-26 20:25:00,
2013-02-26 14:35:00,32.5,24.1,29.65,NNE,16,8.0,21.0,71,0.00,,,0.00,Wunderground v.1.13,2013-02-26 20:35:00,
2013-02-26 14:45:00,32.7,24.3,29.65,NNE,29,10.0,21.0,71,0.00,,,0.00,Wunderground v.1.13,2013-02-26 20:45:00,
2013-02-26 14:55:00,32.7,24.3,29.64,NE,34,10.0,10.0,71,0.00,,,0.00,Wunderground v.1.13,2013-02-26 20:55:00,
2013-02-26 15:05:00,32.8,24.4,29.64,North,360,9.0,31.0,71,0.00,,,0.00,Wunderground v.1.13,2013-02-26 21:05:00,
2013-02-26 15:15:00,32.7,24.7,29.64,NE,48,9.0,9.0,72,0.00,,,0.00,Wunderground v.1.13,2013-02-26 21:15:00,
2013-02-26 15:20:00,32.7,24.7,29.63,NNE,17,9.0,26.0,72,0.00,,,0.00,Wunderground v.1.13,2013-02-26 21:20:00,
2013-02-26 15:30:00,32.8,24.8,29.63,NE,48,9.0,31.0,72,0.00,,,0.00,Wunderground v.1.13,2013-02-26 21:30:00,
2013-02-26 15:35:00,32.7,24.7,29.63,NNE,22,10.0,10.0,72,0.00,,,0.00,Wunderground v.1.13,2013-02-26 21:35:00,
2013-02-26 15:40:00,32.7,24.7,29.63,North,350,10.0,26.0,72,0.00,,,0.00,Wunderground v.1.13,2013-02-26 21:40:00,
2013-02-26 15:50:00,32.7,24.7,29.62,NE,50,10.0,26.0,72,0.00,,,0.00,Wunderground v.1.13,2013-02-26 21:50:00,
2013-02-26 16:00:00,32.8,25.1,29.62,NNE,20,10.0,10.0,73,0.00,,,0.00,Wunderground v.1.13,2013-02-26 22:00:00,
2013-02-26 16:05:00,32.8,25.1,29.62,North,355,9.0,9.0,73,0.00,,,0.00,Wunderground v.1.13,2013-02-26 22:05:00,
2013-02-26 16:15:00,32.8,25.4,29.62,North,5,9.0,25.0,74,0.00,,,0.00,Wunderground v.1.13,2013-02-26 22:15:00,
2013-02-26 16:20:00,32.8,25.4,29.62,NNE,25,10.0,25.0,74,0.00,,,0.00,Wunderground v.1.13,2013-02-26 22:20:00,
2013-02-26 16:30:00,32.5,25.8,29.62,NNE,18,9.0,25.0,76,0.00,,,0.00,Wunderground v.1.13,2013-02-26 22:30:00,
2013-02-26 16:40:00,32.1,26.3,29.62,North,360,11.0,11.0,79,0.00,,,0.00,Wunderground v.1.13,2013-02-26 22:40:00,
2013-02-26 16:45:00,31.9,26.4,29.62,NE,53,10.0,10.0,80,0.00,,,0.00,Wunderground v.1.13,2013-02-26 22:45:00,
2013-02-26 16:50:00,31.8,26.6,29.61,NE,51,10.0,25.0,81,0.00,,,0.00,Wunderground v.1.13,2013-02-26 22:50:00,
2013-02-26 17:00:00,31.8,26.9,29.61,NE,38,9.0,25.0,82,0.00,,,0.00,Wunderground v.1.13,2013-02-26 23:00:00,
2013-02-26 17:05:00,31.6,27.0,29.61,ENE,67,9.0,27.0,83,0.00,,,0.00,Wunderground v.1.13,2013-02-26 23:05:00,
2013-02-26 17:15:00,31.3,27.0,29.61,NE,54,9.0,27.0,84,0.00,,,0.00,Wunderground v.1.13,2013-02-26 23:15:00,
2013-02-26 17:25:00,31.0,27.6,29.62,North,360,9.0,9.0,87,0.00,,,0.00,Wunderground v.1.13,2013-02-26 23:25:00,
2013-02-26 17:35:00,30.9,27.8,29.62,NE,46,9.0,27.0,88,0.00,,,0.00,Wunderground v.1.13,2013-02-26 23:35:00,
2013-02-26 17:45:00,30.9,28.0,29.62,NNE,24,8.0,27.0,89,0.00,,,0.00,Wunderground v.1.13,2013-02-26 23:45:00,
2013-02-26 17:50:00,30.7,28.1,29.62,NNE,20,8.0,27.0,90,0.00,,,0.00,Wunderground v.1.13,2013-02-26 23:50:00,
2013-02-26 18:00:00,30.7,28.4,29.62,NNE,29,8.0,27.0,91,0.00,,,0.00,Wunderground v.1.13,2013-02-27 00:00:00,
2013-02-26 18:05:00,30.6,28.3,29.62,NNE,22,8.0,8.0,91,0.00,,,0.00,Wunderground v.1.13,2013-02-27 00:05:00,
2013-02-26 18:15:00,30.6,28.6,29.62,NE,39,6.0,6.0,92,0.00,,,0.00,Wunderground v.1.13,2013-02-27 00:15:00,
2013-02-26 18:20:00,30.6,28.6,29.63,NNE,12,6.0,20.0,92,0.00,,,0.00,Wunderground v.1.13,2013-02-27 00:20:00,
2013-02-26 18:30:00,30.6,28.6,29.63,NNE,17,8.0,8.0,92,0.00,,,0.00,Wunderground v.1.13,2013-02-27 00:30:00,
2013-02-26 18:35:00,30.6,28.6,29.63,NNE,23,6.0,20.0,92,0.00,,,0.00,Wunderground v.1.13,2013-02-27 00:35:00,
2013-02-26 18:45:00,30.6,28.6,29.63,NE,46,7.0,20.0,92,0.00,,,0.00,Wunderground v.1.13,2013-02-27 00:45:00,
2013-02-26 18:50:00,30.6,28.6,29.63,NNE,27,6.0,20.0,92,0.00,,,0.00,Wunderground v.1.13,2013-02-27 00:50:00,
2013-02-26 18:55:00,30.6,28.8,29.63,NNE,19,6.0,20.0,93,0.00,,,0.00,Wunderground v.1.13,2013-02-27 00:55:00,
2013-02-26 19:05:00,30.7,28.9,29.63,ENE,65,7.0,22.0,93,0.00,,,0.00,Wunderground v.1.13,2013-02-27 01:05:00,
2013-02-26 19:15:00,30.7,28.9,29.63,NE,37,7.0,22.0,93,0.00,,,0.00,Wunderground v.1.13,2013-02-27 01:15:00,
2013-02-26 19:25:00,30.7,28.9,29.62,NNE,17,9.0,22.0,93,0.00,,,0.00,Wunderground v.1.13,2013-02-27 01:25:00,
2013-02-26 19:30:00,30.7,28.9,29.62,NE,48,9.0,9.0,93,0.00,,,0.00,Wunderground v.1.13,2013-02-27 01:30:00,
2013-02-26 19:35:00,30.7,28.9,29.61,North,10,9.0,22.0,93,0.00,,,0.00,Wunderground v.1.13,2013-02-27 01:35:00,
2013-02-26 19:45:00,30.7,28.9,29.61,NE,44,7.0,7.0,93,0.00,,,0.00,Wunderground v.1.13,2013-02-27 01:45:00,
2013-02-26 19:55:00,30.7,28.9,29.62,NNE,28,7.0,7.0,93,0.00,,,0.00,Wunderground v.1.13,2013-02-27 01:55:00,
2013-02-26 20:00:00,30.7,28.9,29.62,ENE,62,7.0,22.0,93,0.00,,,0.00,Wunderground v.1.13,2013-02-27 02:00:00,
2013-02-26 20:05:00,30.7,28.9,29.62,NE,51,7.0,7.0,93,0.00,,,0.00,Wunderground v.1.13,2013-02-27 02:05:00,
2013-02-26 20:15:00,30.7,28.9,29.62,NE,39,7.0,7.0,93,0.00,,,0.00,Wunderground v.1.13,2013-02-27 02:15:00,
2013-02-26 20:20:00,30.7,28.9,29.61,ENE,66,8.0,8.0,93,0.00,,,0.00,Wunderground v.1.13,2013-02-27 02:20:00,
2013-02-26 20:25:00,30.7,28.9,29.61,NE,43,6.0,6.0,93,0.00,,,0.00,Wunderground v.1.13,2013-02-27 02:25:00,
2013-02-26 20:30:00,30.7,28.9,29.61,NE,42,6.0,21.0,93,0.00,,,0.00,Wunderground v.1.13,2013-02-27 02:30:00,
2013-02-26 20:35:00,30.7,28.9,29.61,NNE,24,8.0,8.0,93,0.00,,,0.00,Wunderground v.1.13,2013-02-27 02:35:00,
2013-02-26 20:45:00,30.6,28.6,29.61,North,5,7.0,21.0,92,0.00,,,0.00,Wunderground v.1.13,2013-02-27 02:45:00,
2013-02-26 20:55:00,30.4,28.4,29.61,NNE,12,8.0,8.0,92,0.00,,,0.00,Wunderground v.1.13,2013-02-27 02:55:00,
2013-02-26 21:00:00,30.4,28.4,29.61,NNE,14,7.0,21.0,92,0.00,,,0.00,Wunderground v.1.13,2013-02-27 03:00:00,
2013-02-26 21:05:00,30.4,28.4,29.60,NNE,17,7.0,21.0,92,0.00,,,0.00,Wunderground v.1.13,2013-02-27 03:05:00,
2013-02-26 21:15:00,30.3,28.3,29.60,NNE,17,8.0,21.0,92,0.00,,,0.00,Wunderground v.1.13,2013-02-27 03:15:00,
2013-02-26 21:25:00,30.1,28.1,29.60,NNE,20,8.0,8.0,92,0.00,,,0.00,Wunderground v.1.13,2013-02-27 03:25:00,
2013-02-26 21:35:00,30.1,28.1,29.60,NE,34,7.0,7.0,92,0.00,,,0.00,Wunderground v.1.13,2013-02-27 03:35:00,
2013-02-26 21:45:00,30.1,28.1,29.60,NNE,24,7.0,21.0,92,0.00,,,0.00,Wunderground v.1.13,2013-02-27 03:45:00,
2013-02-26 21:55:00,30.1,28.1,29.59,North,10,6.0,6.0,92,0.00,,,0.00,Wunderground v.1.13,2013-02-27 03:55:00,
2013-02-26 22:00:00,30.0,28.0,29.59,North,9,6.0,21.0,92,0.00,,,0.00,Wunderground v.1.13,2013-02-27 04:00:00,
2013-02-26 22:05:00,30.0,28.0,29.59,NNE,15,7.0,19.0,92,0.00,,,0.00,Wunderground v.1.13,2013-02-27 04:05:00,
2013-02-26 22:15:00,29.8,27.8,29.59,NE,44,7.0,7.0,92,0.00,,,0.00,Wunderground v.1.13,2013-02-27 04:15:00,
2013-02-26 22:20:00,29.8,27.8,29.59,NNE,13,6.0,19.0,92,0.00,,,0.00,Wunderground v.1.13,2013-02-27 04:20:00,
2013-02-26 22:30:00,29.8,27.8,29.59,North,5,7.0,7.0,92,0.00,,,0.00,Wunderground v.1.13,2013-02-27 04:30:00,
2013-02-26 22:35:00,29.8,28.0,29.59,NNE,13,7.0,7.0,93,0.00,,,0.00,Wunderground v.1.13,2013-02-27 04:35:00,
2013-02-26 22:45:00,29.8,28.0,29.59,NNE,32,7.0,19.0,93,0.00,,,0.00,Wunderground v.1.13,2013-02-27 04:45:00,
2013-02-26 22:50:00,29.7,27.9,29.58,NNE,30,7.0,7.0,93,0.00,,,0.00,Wunderground v.1.13,2013-02-27 04:50:00,
2013-02-26 23:05:00,29.7,27.9,29.57,NNE,21,7.0,7.0,93,0.00,,,0.00,Wunderground v.1.13,2013-02-27 05:05:00,
2013-02-26 23:10:00,29.7,27.9,29.57,North,5,6.0,6.0,93,0.00,,,0.00,Wunderground v.1.13,2013-02-27 05:10:00,
2013-02-26 23:15:00,29.7,27.9,29.57,NNE,20,5.0,16.0,93,0.00,,,0.00,Wunderground v.1.13,2013-02-27 05:15:00,
2013-02-26 23:20:00,29.7,27.9,29.57,ENE,78,6.0,16.0,93,0.00,,,0.00,Wunderground v.1.13,2013-02-27 05:20:00,
2013-02-26 23:25:00,29.7,27.9,29.57,North,5,7.0,7.0,93,0.00,,,0.00,Wunderground v.1.13,2013-02-27 05:25:00,
2013-02-26 23:30:00,29.7,27.9,29.57,ENE,76,7.0,16.0,93,0.00,,,0.00,Wunderground v.1.13,2013-02-27 05:30:00,
2013-02-26 23:40:00,29.8,28.0,29.57,North,5,8.0,8.0,93,0.00,,,0.00,Wunderground v.1.13,2013-02-27 05:40:00,
2013-02-26 23:45:00,29.8,28.0,29.57,NNE,26,7.0,16.0,93,0.00,,,0.00,Wunderground v.1.13,2013-02-27 05:45:00,
2013-02-26 23:55:00,29.8,28.0,29.57,NNE,19,7.0,16.0,93,0.00,,,0.00,Wunderground v.1.13,2013-02-27 05:55:00,